Terminal Aerodrome Forecast
Issued by NWS Omaha/Valley, NE

Home | Current Version | Previous Version | Text Only | Print | Product List | Glossary On
Versions: 1 2 3 4 5 6 7 8 9 10 11 12 13 14 15 16 17 18 19 20 21 22 23 24 25 26 27 28 29 30 31 32 33 34 35 36 37 38 39 40 41 42
000
FTUS43 KOAX 021511 AAB
TAFOFK
TAF AMD
KOFK 021511Z 0215/0312 33015G23KT P6SM SCT015 BKN035
      TEMPO 0215/0217 P6SM -RA BKN011 OVC035
     FM022200 33012KT P6SM SCT120
     FM030700 31015G25KT P6SM BKN040=

USA.gov is the U.S. government's official web portal to all federal, state and local government web resources and services.